Regional Weather Roundup
Issued by NWS Charleston, SC

Current Version | Previous Version | Text Only | Print | Product List | Glossary Off
Versions: 1 2 3 4 5 6 7 8 9 10 11 12 13 14 15 16 17 18 19 20 21 22 23 24 25 26 27 28 29 30 31 32 33 34 35 36 37 38 39 40 41 42 43 44 45 46 47 48 49 50
000 ASUS42 KCHS 282026 RWRCHS REGIONAL WEATHER ROUNDUP NATIONAL WEATHER SERVICE CHARLESTON SC 300 PM EST WED JAN 28 2015 NOTE: "FAIR" INDICATES FEW OR NO CLOUDS BELOW 12,000 FEET WITH NO SIGNIFICANT WEATHER AND/OR OBSTRUCTIONS TO VISIBILITY. NOT ALL STATIONS ARE QUALITY CONTROLLED BY THE NATIONAL WEATHER SERVICE. USE DATA WITH CAUTION...ESPECIALLY DEWPOINT OBSERVATIONS. SCZ027-030-031-034>040-042>050-282100- ...SOUTHEAST SOUTH CAROLINA... CITY SKY/WX TMP DP RH WIND PRES REMARKS N CHARLESTON SUNNY 48 19 31 N8 30.24R WATERFRONT PRK N/A 46 N/A N/A N8G14 N/A MOUNT PLEASANT FAIR N/A N/A N/A N12 30.23R PINOPOLIS NOT AVBL MONCKS CORNER FAIR 46 21 36 CALM 30.25R SUMMERVILLE FAIR 46 23 39 NW8 30.26R BEAUFORT MCAS SUNNY 50 22 33 N10 30.25R BEAUFORT ARPT FAIR 48 27 43 N13 30.24S HILTON HEAD IS SUNNY N/A N/A N/A N9 30.26R WALTERBORO CLEAR 50 12 22 N10G16 30.25S ALLENDALE FAIR 52 18 25 N8 30.23S ...SOUTHERN MIDLANDS AND PEE DEE... CITY SKY/WX TMP DP RH WIND PRES REMARKS GEORGETOWN NOT AVBL KINGSTREE NOT AVBL ORANGEBURG SUNNY 50 17 27 N8 30.24S BARNWELL FAIR 52 19 28 N8 30.24F AIKEN FAIR 50 21 32 W6 30.26S MANNING FAIR 48 19 32 N9 30.24S COLUMBIA SUNNY 50 19 29 N7 30.24S SUMTER SUNNY 48 19 31 N8 30.22S FLORENCE SUNNY 48 18 30 N12G20 30.23F MYRTLE BEACH SUNNY 46 16 29 N16 30.23S N MYRTLE BEACH SUNNY 47 16 29 N10 30.20S $$ GAZ063-065-086>088-099>101-113>116-118-119-134>141-150-282100- ...SOUTHEAST GEORGIA... CITY SKY/WX TMP DP RH WIND PRES REMARKS SAVANNAH ARPT MOSUNNY 53 16 23 N12 30.24S HUNTER AAF SUNNY 54 19 25 NW6G18 30.22S FORT STEWART SUNNY 53 22 29 N12 30.22F STATESBORO SUNNY 51 22 32 N6 30.24S SYLVANIA CLEAR 50 24 35 NW6 30.25S CLAXTON FAIR 52 28 40 NW5 30.24S ...CSRA...CENTRAL AND FAR SOUTHEAST GEORGIA... CITY SKY/WX TMP DP RH WIND PRES REMARKS THOMSON SUNNY 54 24 31 N7 30.27F AUGUSTA-BUSH SUNNY 51 11 20 CALM 30.24F AUGUSTA-DANIEL NOT AVBL SWAINSBORO FAIR 54 -13 6 N6 30.25R VIDALIA SUNNY 54 27 35 N7 30.24S EASTMAN FAIR 54 29 38 NW5 30.27S HAZLEHURST FAIR 55 27 33 N7 30.23S ALMA SUNNY 55 27 34 VRB6 30.23F WAYCROSS SUNNY 56 31 37 CALM 30.23S JESUP FAIR 55 30 38 CALM 30.24S BAXLEY FAIR 54 27 35 NE3 30.23S BRUNSWICK SUNNY 55 21 26 NE3 30.24S SAINT SIMONS SUNNY 51 30 44 E8 30.24S $$ SCZ027-028-034-036>038-045-046-048>050-GAZ119-141-282100- ...LAKE AND SUPPLEMENTAL COASTAL OBSERVATIONS... STATION/POSITION TIME TEMP WIND PRES WAVE SWELL AIR SEA DIR/SP/G HT/PER HT/PER/DIR (UTC) (F) (DEG/KT/KT) (MB) (FT/S) (FT/S/D) UPR LAKE MARION NOT AVBL WINYAH BAY 1900 44 330/ 8 1022.0S LAKE MURRAY 1900 48 340/ 1/ 7 1023.4F ACE BASIN NERRS 1900 47 340/ 4 1024.0 FORT PULASKI 2000 49 52 350/ 9/ 12 1024.2S SAPELO ISLAND 2000 54 330/ 5 1024.0S $$ ANZ835-935-AMZ111-154-330-350-352-354-370-450-454-472-282100- ...C-MAN AND BUOY OBSERVATIONS... STATION/POSITION TIME TEMP WIND PRES WAVE SWELL AIR SEA DIR/SP/G HT/PER HT/PER/DIR (UTC) (F) (DEG/KT/KT) (MB) (FT/S) (FT/S/D) BUOY 41004 1950 43 66 360/ 14/ 19 1022.8R 5/ 6 2/14 BUOY 41008 1950 45 54 10/ 10/ 12 1024.0S 4/ 6 3/ 60/ 6 FOLLY BEACH CMAN 2000 46 340/ 5/ 8 1024.4R CAPERS NEARSHORE 1900 44 30/ 8/ 10 N/A FRIPP NEARSHORE 1900 45 10/ 14/ 16 1023.1F STATION/POSITION TIME TEMP WIND PRES WAVE SWELL AIR SEA DIR/SP/G HT/PER HT/PER/DIR (UTC) (F) (DEG/KT/KT) (MB) (FT/S) (FT/S/D) 5E ST. MARYS GA 1922 57 N/A 4/13 2/100/13 FRYING PAN BUOY 1950 42 64 350/ 14/ 17 1022.7F 5/ 6 3/ 80/12 BUOY 41025 1950 39 340/ 21/ 25 1020.5R 8/12 5/ 40/12 CAPE LOOKOUT NC 2000 42 350/ 14/ 17 1021.6R BUOY 41002 1950 57 72 320/ 21/ 25 1017.1R 10/ 8 5/ 10/12 BUOY 41010 1920 63 76 320/ 16/ 21 1019.4F ST AUGUSTINE FL 2000 48 360/ 16/ 17 1024.3R $$

USA.gov is the U.S. government's official web portal to all federal, state and local government web resources and services.